RH
36 34 34 35 38 39 39 39 40 42 47 53 54 52 50 48 47 50 55 55 52 53 56 56 53 50 48 49 50 49 46 44
35 34 34 36 36 37 37 38 37 43 47 49 50 48 47 48 46 47 53 59 58 53 53 57 53 51 50 49 49 48 48 46
36 35 35 37 36 36 36 36 38 42 45 43 47 48 49 49 50 50 51 55 57 58 55 56 55 53 51 48 48 47 45 46
37 35 34 36 36 37 37 37 39 41 46 49 50 53 56 55 52 48 47 49 54 59 60 60 59 57 56 54 49 46 47 48
41 38 35 34 35 35 37 42 43 44 47 49 47 47 45 45 42 45 48 50 52 58 63 65 64 62 62 58 54 53 51 49
44 44 41 38 38 38 37 43 46 48 49 48 48 54 52 50 51 51 51 49 50 54 58 63 69 70 71 70 68 58 56 56
44 46 46 45 44 42 42 41 44 49 52 53 54 54 56 58 58 54 53 51 51 53 56 58 61 64 65 64 66 68 64 61
46 45 46 48 48 47 46 45 44 48 52 55 58 58 59 59 60 61 61 58 55 53 56 58 59 61 65 68 67 69 67 65
45 42 42 43 44 47 47 47 47 46 49 54 55 58 60 61 64 65 64 63 61 63 63 66 72 73 75 75 76 75 74 71
44 43 42 43 44 45 46 47 48 49 51 50 54 61 60 63 66 68 68 69 70 71 70 73 77 77 79 84 84 83 81 80
50 46 44 45 44 43 43 44 46 48 49 51 51 52 61 66 68 68 68 69 71 72 75 76 76 78 82 86 92 95 95 94
57 53 50 48 44 42 41 42 42 46 48 51 54 52 58 61 64 67 68 70 71 71 73 79 84 84 86 86 87 91 97 98
55 54 51 50 48 42 41 39 39 38 44 50 54 58 60 59 62 67 71 72 72 72 77 76 80 87 92 86 92 88 96 96
58 51 45 42 45 45 44 39 39 39 39 43 50 59 63 66 65 64 67 73 74 77 79 79 85 88 94 90 92 92 90 92
56 52 47 45 42 45 44 41 40 40 39 44 46 53 61 66 69 72 71 76 80 80 81 84 87 89 90 91 91 97 94 96
47 44 44 45 37 34 39 38 41 41 41 44 49 52 61 64 70 71 74 78 80 80 82 83 89 96 89 98 93 94 94 93
43 40 35 34 34 38 33 34 41 48 46 49 50 57 69 67 62 71 77 74 76 81 83 86 94 94 95 97 98 98 97 98
31 34 33 31 32 32 33 34 38 49 56 55 59 63 65 62 63 65 67 74 79 82 88 91 95 91 99 95 94 96 98 95
23 22 24 25 25 30 30 30 34 48 53 54 65 70 70 66 58 60 65 70 79 82 89 87 92 95 95 96 94 94 98 99